DW2465 Weather Reports


Display with metric or nautical units.
time (UTC)temp
F
wind
direction
speed
MPH
gust
MPH
rain 1hr
in
rain 24hr
in
rain mn
in
humidity
%
barometer
mb
20210922200058 66 242 0.0 2.0 0.00 0.00 0.00 46 1023.4
20210922194619 66 236 0.0 2.0 0.00 0.00 0.00 46 1023.6
20210922193120 66 225 0.0 2.0 0.00 0.00 0.00 44 1023.9
20210922191606 65 231 0.0 3.0 0.00 0.00 0.00 49 1024.1
20210922190150 65 293 0.0 9.0 0.00 0.00 0.00 49 1024.4
20210922184632 65 261 0.0 3.0 0.00 0.00 0.00 49 1024.6
20210922183114 64 211 0.0 3.0 0.00 0.00 0.00 50 1024.7
20210922181646 64 145 0.0 4.0 0.00 0.00 0.00 50 1024.8
20210922180125 64 206 0.0 4.0 0.00 0.00 0.00 51 1025.0
20210922174625 64 141 0.0 2.0 0.00 0.00 0.00 50 1025.3
20210922173109 64 115 0.0 1.0 0.00 0.00 0.00 51 1025.5
20210922171625 63 145 0.0 0.0 0.00 0.00 0.00 51 1025.8
20210922170131 63 124 0.0 2.0 0.00 0.00 0.00 50 1026.0
20210922164614 62 198 0.0 2.0 0.00 0.00 0.00 48 1026.2
20210922163128 62 128 0.0 4.0 0.00 0.00 0.00 53 1026.3
20210922161637 61 135 0.0 0.0 0.00 0.00 0.00 53 1026.4
20210922160032 61 150 0.0 0.0 0.00 0.00 0.00 55 1026.5
20210922154542 60 144 0.0 3.0 0.00 0.00 0.00 59 1026.5
20210922153119 60 167 0.0 0.0 0.00 0.00 0.00 65 1026.4
20210922151641 59 181 0.0 2.0 0.00 0.00 0.00 61 1026.4
20210922150029 58 181 0.0 3.0 0.00 0.00 0.00 67 1026.5
20210922144554 58 294 0.0 0.0 0.00 0.00 0.00 70 1026.3
20210922143102 56 293 0.0 0.0 0.00 0.00 0.00 76 1026.4
20210922141541 54 294 0.0 0.0 0.00 0.00 0.00 78 1026.4
20210922140005 52 294 0.0 0.0 0.00 0.00 0.00 84 1026.4
20210922134506 51 282 0.0 0.0 0.00 0.00 0.00 90 1026.3
20210922133003 49 282 0.0 0.0 0.00 0.00 0.00 94 1026.4
20210922131502 47 282 0.0 0.0 0.00 0.00 0.00 93 1026.2
20210922130134 46 282 0.0 0.0 0.00 0.00 0.00 93 1026.3
20210922124610 45 298 0.0 0.0 0.00 0.00 0.00 93 1026.2
20210922123124 45 298 0.0 0.0 0.00 0.00 0.00 93 1026.1
20210922121611 45 298 0.0 0.0 0.00 0.00 0.00 92 1026.2
20210922120139 45 297 0.0 0.0 0.00 0.00 0.00 92 1026.2
20210922114629 45 298 0.0 0.0 0.00 0.00 0.00 91 1026.2
20210922113153 45 298 0.0 0.0 0.00 0.00 0.00 91 1026.2
20210922111612 45 297 0.0 3.0 0.00 0.00 0.00 91 1026.1
20210922110239 46 297 0.0 0.0 0.00 0.00 0.00 90 1025.9
20210922104552 46 297 0.0 0.0 0.00 0.00 0.00 90 1025.8
20210922103054 46 296 0.0 0.0 0.00 0.00 0.00 90 1025.8
20210922101517 46 296 0.0 0.0 0.00 0.00 0.00 91 1025.9
20210922100033 46 305 0.0 3.0 0.00 0.00 0.00 91 1025.9
20210922094512 46 309 0.0 2.0 0.00 0.00 0.00 91 1025.7
20210922093022 46 309 0.0 0.0 0.00 0.00 0.00 91 1025.9
20210922091510 46 309 0.0 0.0 0.00 0.00 0.00 91 1025.8
20210922090008 46 309 0.0 0.0 0.00 0.00 0.00 90 1025.8
20210922084504 46 309 0.0 0.0 0.00 0.00 0.00 88 1025.7
20210922083258 47 309 0.0 0.0 0.00 0.00 0.00 88 1025.8
20210922081813 47 311 0.0 0.0 0.00 0.00 0.00 87 1025.7
20210922080140 48 310 0.0 0.0 0.00 0.00 0.00 86 1025.8
20210922074612 49 310 0.0 3.0 0.00 0.00 0.00 85 1025.9
20210922073123 48 314 0.0 0.0 0.00 0.00 0.00 85 1025.7
20210922071630 49 296 0.0 0.0 0.00 0.00 0.00 85 1025.5
20210922070143 49 295 0.0 2.0 0.00 0.00 0.00 85 1025.3
20210922064706 49 294 0.0 0.0 0.00 0.00 0.00 85 1025.2
20210922063127 49 292 0.0 0.0 0.00 0.00 0.00 84 1025.4
20210922061610 50 290 0.0 0.0 0.00 0.00 0.00 83 1025.6
20210922060046 50 292 0.0 0.0 0.00 0.00 0.00 82 1025.7
20210922054613 50 282 0.0 0.0 0.00 0.00 0.00 82 1025.8
20210922053036 50 284 0.0 0.0 0.00 0.00 0.00 80 1025.9
20210922051648 51 286 0.0 0.0 0.00 0.00 0.00 78 1025.8
20210922050040 52 285 0.0 0.0 0.00 0.00 0.00 77 1025.9
20210922044532 52 286 0.0 0.0 0.00 0.00 0.00 77 1026.0
20210922043040 52 281 0.0 0.0 0.00 0.00 0.00 76 1026.1
20210922041524 52 284 1.0 6.0 0.00 0.00 0.00 76 1025.9
20210922040023 52 281 0.0 0.0 0.00 0.00 0.00 75 1025.9
20210922034605 53 283 0.0 0.0 0.00 0.00 0.00 74 1025.9
20210922033035 53 284 0.0 0.0 0.00 0.00 0.00 73 1026.0
20210922031546 52 285 0.0 0.0 0.00 0.00 0.00 74 1025.8
20210922030026 53 282 0.0 0.0 0.00 0.00 0.00 71 1025.6
20210922024526 54 282 0.0 0.0 0.00 0.00 0.00 69 1025.6
20210922023030 54 283 0.0 0.0 0.00 0.00 0.00 68 1025.6
20210922021516 54 281 0.0 3.0 0.00 0.00 0.00 69 1025.4
20210922020028 54 290 0.0 0.0 0.00 0.00 0.00 69 1025.3
20210922014526 54 291 0.0 0.0 0.00 0.00 0.00 68 1025.2
20210922013010 54 292 0.0 0.0 0.00 0.00 0.00 68 1025.1
20210922011515 55 292 0.0 0.0 0.00 0.00 0.00 68 1024.9
20210922010005 55 292 0.0 0.0 0.00 0.00 0.00 67 1025.0
20210922004641 56 292 0.0 0.0 0.00 0.00 0.00 66 1024.8
20210922003116 57 292 0.0 0.0 0.00 0.00 0.00 64 1024.7
20210922001640 57 282 0.0 0.0 0.00 0.00 0.00 63 1024.5
20210922000040 59 313 0.0 0.0 0.00 0.00 0.00 61 1024.3
20210921234529 59 304 0.0 2.0 0.00 0.00 0.00 60 1024.1
20210921233047 59 313 0.0 0.0 0.00 0.00 0.00 58 1024.1
20210921231543 60 283 0.0 5.0 0.00 0.00 0.00 56 1024.0
20210921230042 61 301 0.0 3.0 0.00 0.00 0.00 56 1023.9
20210921224538 61 284 1.0 13.0 0.00 0.00 0.00 55 1023.7
20210921223029 61 340 1.0 6.0 0.00 0.00 0.00 54 1023.5
20210921221602 62 273 1.0 13.0 0.00 0.00 0.00 54 1023.3
20210921220103 61 311 0.0 4.0 0.00 0.02 0.00 55 1023.1
20210921214529 62 325 0.0 8.0 0.00 0.02 0.00 54 1022.8
20210921213014 63 317 4.0 12.0 0.00 0.02 0.00 53 1022.6
20210921210136 63 346 3.0 13.0 0.00 0.16 0.00 54 1022.5
20210921204635 63 349 4.0 14.0 0.00 0.16 0.00 54 1022.5
20210921203305 63 300 5.0 17.0 0.00 0.16 0.00 54 1022.5
20210921201545 62 306 0.0 15.0 0.00 0.16 0.00 58 1022.6